Weather History for KVOK - September, 2014

Change the Weather History Date:

Tuesday, September 9, 2014

  Actual Average Record
Temperature  
Mean Temperature 68 °F -  
Max Temperature 80 °F 72 °F 91 °F (2002)
Min Temperature 57 °F 54 °F 34 °F (2008)
Cooling Degree Days 2    
Growing Degree Days 18 (Base 50)    
Moisture  
Dew Point 62 °F    
Average Humidity 93    
Maximum Humidity 100    
Minimum Humidity 57    
Precipitation  
Precipitation 0.06 in - - ()
Sea Level Pressure  
Sea Level Pressure 29.89 in    
Wind  
Wind Speed 4 mph (ESE)    
Max Wind Speed 8 mph    
Max Gust Speed -    
Visibility 10 miles    
Events Rain , Thunderstorm    
Averages and records for this station are not official NWS values.
T = Trace of Precipitation, MM = Missing Value Source: NWS Daily Summary

Daily Weather History Graph

Daily Weather History Graph

Search for Another Location

Airport or City:

Trip Planner

Search our weather history database for the weather conditions in past years. The results will help you decide how hot, cold, wet, or windy it might be!

Date:

Astronomy

Sep. 09, 2014 Rise Set
Actual Time 6:33 AM CDT 7:22 PM CDT
Civil Twilight 6:04 AM CDT 7:51 PM CDT
Nautical Twilight 5:29 AM CDT 8:26 PM CDT
Astronomical Twilight 4:53 AM CDT 9:02 PM CDT
Moon 7:38 PM CDT (9/9) 7:12 AM CDT (9/9)
Length of Visible Light 13h 47m
Length of Day
12h 48m
Waxing Gibbous, 99% of the Moon is Illuminated
Sep 9
Waxing Gibbous
Sep 15
Last Quarter
Sep 24
New
Oct 1
First Quarter
Oct 8
Full

Hourly Weather History & Observations

Time (CDT) Temp. Dew Point Humidity Pressure Visibility Wind Dir Wind Speed Gust Speed Precip Events Conditions
12:13 AM 60.8 °F 60.8 °F 100% 29.95 in 10.0 mi South 2.3 mph - N/A Rain , Thunderstorm Light Rain
12:18 AM 60.8 °F 60.8 °F 100% 29.95 in 5.0 mi SE 3.5 mph - N/A Rain , Thunderstorm Light Rain
12:28 AM 60.8 °F 60.8 °F 100% 29.95 in 9.0 mi East 5.8 mph - N/A Rain Light Rain
12:35 AM 59.0 °F 59.0 °F 100% 29.95 in 10.0 mi East 5.8 mph - N/A   Partly Cloudy
12:58 AM 59.5 °F 59.5 °F 100% 29.94 in 10.0 mi ESE 5.8 mph - 0.02 in Thunderstorm Scattered Clouds
1:58 AM 59.2 °F 59.2 °F 100% 29.94 in 10.0 mi Calm Calm - N/A   Scattered Clouds
2:18 AM 59.0 °F 59.0 °F 100% 29.92 in 9.0 mi ESE 2.3 mph - N/A   Scattered Clouds
2:23 AM 59.0 °F 59.0 °F 100% 29.92 in 10.0 mi East 2.3 mph - N/A   Partly Cloudy
2:43 AM 57.2 °F 57.2 °F 100% 29.92 in 9.0 mi East 4.6 mph - N/A   Partly Cloudy
2:53 AM 57.2 °F 57.2 °F 100% 29.92 in 10.0 mi East 2.3 mph - N/A   Partly Cloudy
2:58 AM 57.9 °F 57.9 °F 100% 29.93 in 10.0 mi ESE 3.5 mph - N/A   Partly Cloudy
3:13 AM 57.2 °F 57.2 °F 100% 29.92 in 9.0 mi East 1.2 mph - N/A   Partly Cloudy
3:23 AM 57.2 °F 57.2 °F 100% 29.92 in 10.0 mi ENE 3.5 mph - N/A   Scattered Clouds
3:58 AM 58.1 °F 58.1 °F 100% 29.93 in 10.0 mi East 2.3 mph - N/A   Partly Cloudy
4:58 AM 59.2 °F 59.2 °F 100% 29.94 in 10.0 mi SE 2.3 mph - N/A   Partly Cloudy
5:58 AM 57.2 °F 57.2 °F 100% 29.93 in 10.0 mi East 4.6 mph - 0.00 in   Clear
6:38 AM 57.2 °F 57.2 °F 100% 29.93 in 9.0 mi Calm Calm - N/A Rain Light Rain
6:47 AM 57.2 °F 57.2 °F 100% 29.93 in 9.0 mi ENE 3.5 mph - N/A   Partly Cloudy
6:58 AM 57.4 °F 57.4 °F 100% 29.93 in 8.0 mi ESE 4.6 mph - 0.00 in   Partly Cloudy
7:58 AM 59.0 °F 59.0 °F 100% 29.95 in 10.0 mi Calm Calm - N/A   Mostly Cloudy
8:58 AM 64.4 °F 64.4 °F 100% 29.95 in 10.0 mi Variable 2.3 mph - N/A   Mostly Cloudy
9:58 AM 69.8 °F 66.2 °F 88% 29.94 in 10.0 mi SE 3.5 mph - N/A   Mostly Cloudy
10:58 AM 73.4 °F 66.2 °F 78% 29.94 in 10.0 mi SE 3.5 mph - N/A   Mostly Cloudy
11:58 AM 73.4 °F 64.4 °F 73% 29.94 in 10.0 mi SSE 3.5 mph - N/A   Mostly Cloudy
12:58 PM 77.0 °F 66.2 °F 69% 29.91 in 10.0 mi ESE 5.8 mph - N/A   Scattered Clouds
2:58 PM 78.8 °F 62.6 °F 57% 29.86 in 10.0 mi South 6.9 mph - N/A   Scattered Clouds
3:58 PM 78.8 °F 62.6 °F 57% 29.87 in 10.0 mi SSE 4.6 mph - N/A   Mostly Cloudy
4:58 PM 77.0 °F 64.4 °F 65% 29.86 in 10.0 mi South 4.6 mph - N/A   Overcast
5:58 PM 73.4 °F 69.8 °F 88% 29.83 in 10.0 mi East 2.3 mph - N/A   Mostly Cloudy
6:58 PM 71.6 °F 69.8 °F 94% 29.86 in 10.0 mi SSE 4.6 mph - N/A   Mostly Cloudy
7:58 PM 71.6 °F 68.0 °F 88% 29.83 in 10.0 mi SE 5.8 mph - N/A   Overcast
8:58 PM 68.0 °F 66.2 °F 94% 29.82 in 10.0 mi ESE 5.8 mph - N/A   Overcast
9:22 PM 69.8 °F 66.2 °F 88% 29.81 in 10.0 mi SE 6.9 mph - N/A Rain Light Rain Showers
9:41 PM 68.0 °F 68.0 °F 100% 29.80 in 10.0 mi ESE 8.1 mph - N/A   Overcast
9:53 PM 68.0 °F 68.0 °F 100% 29.81 in 10.0 mi SE 6.9 mph - N/A Rain , Thunderstorm Light Thunderstorms and Rain
9:58 PM 68.0 °F 68.0 °F 100% 29.81 in 10.0 mi SE 5.8 mph - N/A Rain , Thunderstorm Light Thunderstorms and Rain
10:58 PM 66.2 °F 66.2 °F 100% 29.81 in 7.0 mi East 5.8 mph - N/A Rain , Thunderstorm Light Thunderstorms and Rain
11:06 PM 66.2 °F 66.2 °F 100% 29.80 in 10.0 mi SE 4.6 mph - N/A Rain Light Rain Showers
11:58 PM 66.6 °F 66.6 °F 100% 29.77 in 10.0 mi SE 5.8 mph - 0.04 in   Clear